Regional Weather Roundup
Issued by NWS Cleveland, OH

Home | Current Version | Previous Version | Graphics & Text | Print | Product List | Glossary On
Versions: 1 2 3 4 5 6 7 8 9 10 11 12 13 14 15 16 17 18 19 20 21 22 23 24 25 26 27 28 29 30 31 32 33 34 35 36 37 38 39 40 41 42 43 44 45 46 47 48 49 50
000
ASUS41 KCLE 270510
RWRCLE
OHIO REGIONAL WEATHER ROUNDUP
NATIONAL WEATHER SERVICE CLEVELAND, OH
100 AM EDT WED JUL 27 2016

NOTE: "FAIR" INDICATES FEW OR NO CLOUDS BELOW 12,000 FEET WITH NO
SIGNIFICANT WEATHER AND/OR OBSTRUCTIONS TO VISIBILITY.

OHZ001>008-015>018-024>027-034-035-043-044-270600-
   NORTHWEST OHIO

CITY           SKY/WX    TMP DP  RH WIND       PRES   REMARKS
DEFIANCE       CLEAR     71  64  78 CALM      30.02S
FINDLAY        CLEAR     71  61  70 CALM      30.01F
TOLEDO EXPRESS CLEAR     67  66  97 CALM      30.01S
TOLEDO EXEC    CLEAR     70  62  76 S6        30.02S
LIMA           CLEAR     70  64  81 E5        30.03S
$$

OHZ009>014-019>023-028>033-038-089-270600-
   NORTHEAST OHIO

CITY           SKY/WX    TMP DP  RH WIND       PRES   REMARKS
CLE-HOPKINS    PTCLDY    68  58  70 CALM      30.03S
CLE-LAKEFRONT  CLEAR     75  57  53 S3        30.00S
CUY CO. ARPT   NOT AVBL
LORAIN-ELYRIA  PTCLDY    64  58  80 CALM      30.03S
ASHTABULA      CLEAR     60  60 100 CALM      30.03S
AKRON-CANTON   MOCLDY    71  57  61 CALM      30.04S
WOOSTER        MOCLDY    64  61  90 CALM      30.04S
MANSFIELD      CLOUDY    73  58  59 SE3       30.05S
YOUNGSTOWN     PTCLDY    63  59  87 CALM      30.03S
$$

OHZ042-051>053-060>062-070>072-077>081-270600-
  SOUTHWEST OHIO

CITY           SKY/WX    TMP DP  RH WIND       PRES   REMARKS
CINC-COVINGTON MOCLDY    76  74  93 W3        30.02S
CINC-LUNKEN    CLOUDY    75  75 100 CALM      30.01S FOG
HAMILTON       PTCLDY    72  70  93 CALM      30.02S
DAYTON         MOCLDY    75  68  78 NW5       30.04R
WRIGHT-PAT AFB MOCLDY    75  72  91 S1        30.02S
DAYTON GENERAL CLOUDY    76  68  76 CALM      30.02S
WILMINGTON     CLOUDY    74  73  97 CALM      30.03R
$$

OHZ036-037-039>041-045>050-054>059-063>069-073>076-082>088-270600-
  CENTRAL AND SOUTHEAST OHIO

CITY           SKY/WX    TMP DP  RH WIND       PRES   REMARKS
COLUMBUS       CLOUDY    75  72  90 E6        30.01R
OSU AIRPORT    MOCLDY    76  66  71 NE8       30.01S
BOLTON FIELD   CLOUDY    73  72  98 CALM      30.02S
RICKENBACK AFB CLOUDY    73  73  98 CALM      30.01S
NEWARK         CLOUDY    77  63  61 CALM      30.02R
MARION         CLOUDY    74  61  63 CALM      30.04R
LANCASTER      PTCLDY    73  72  96 CALM      30.02S
ZANESVILLE     CLOUDY    77  72  84 CALM      30.01S
NEW PHILLY     CLOUDY    76  60  57 CALM      30.03S
$$




USA.gov is the U.S. government's official web portal to all federal, state and local government web resources and services.